Regional Weather Roundup
Issued by NWS Glasgow, MT

Home | Current Version | Previous Version | Text Only | Print | Product List | Glossary On
Versions: 1 2 3 4 5 6 7 8 9 10 11 12 13 14 15 16 17 18 19 20 21 22 23 24 25 26 27 28 29 30 31 32 33 34 35 36 37 38 39 40 41 42 43 44 45 46 47 48 49 50
000
ASUS45 KGGW 051415
RWRGGW
HOURLY WEATHER ROUNDUP FOR NORTHEAST MONTANA
NATIONAL WEATHER SERVICE GLASGOW MONTANA
800 AM MDT TUE MAY 05 2015

NOTE: "FAIR" INDICATES FEW OR NO CLOUDS BELOW 12,000 FEET WITH NO
SIGNIFICANT WEATHER AND/OR OBSTRUCTIONS TO VISISBILITY.

NORTHEAST MONTANA


CITY           SKY/WX    TMP DP  RH WIND       PRES   REMARKS
GLASGOW        SUNNY     52  36  54 E16       29.82F
WOLF POINT     MOSUNNY   54  36  50 E7        29.87S
JORDAN           N/A     53  38  56 SE10      29.82S
WINNETT          N/A     56  43  61 CALM        N/A
SIDNEY         SUNNY     55  30  38 S8        29.92F
GLENDIVE       MOSUNNY   54  32  43 SE10      29.91S

FORT PECK REPORTS


CITY           SKY/WX    TMP DP  RH WIND       PRES   REMARKS
FORT PECK        N/A     53  38  56 E12         N/A
THE PINES        N/A     55  37  50 SE6         N/A

SOUTHEAST MONTANA


CITY           SKY/WX    TMP DP  RH WIND       PRES   REMARKS
BILLINGS       MOSUNNY   52  42  69 CALM      29.82S
MILES CITY     SUNNY     55  37  50 SE16      29.85S
BAKER          SUNNY     52  33  48 SE21      29.93S
LIVINGSTON     MOSUNNY   45  36  70 NW10      29.84S

CENTRAL MONTANA


CITY           SKY/WX    TMP DP  RH WIND       PRES   REMARKS
HAVRE          MOSUNNY   50  41  71 W8        29.77R
LEWISTOWN      MOSUNNY   53  40  61 S3        29.79S
GREAT FALLS    MOSUNNY   50  34  54 N3        29.78R
CUT BANK       CLOUDY    56  36  47 W17G24    29.76F
HELENA         MOSUNNY   49  32  52 CALM      29.84R
BUTTE          SUNNY     39  30  70 CALM      29.90R
BOZEMAN        PTSUNNY   50  39  66 CALM      29.83R

WESTERN MONTANA


CITY           SKY/WX    TMP DP  RH WIND       PRES   REMARKS
MISSOULA       LGT RAIN  52  42  69 W5        29.88R
KALISPELL      NOT AVBL

NORTH DAKOTA


CITY           SKY/WX    TMP DP  RH WIND       PRES   REMARKS
WILLISTON      SUNNY     57  29  34 S8        29.94F
DICKINSON      SUNNY     54  32  43 S21G28    29.95F
MINOT          CLOUDY    58  30  34 SE16G25   30.01F
BISMARCK       MOSUNNY   57  35  43 SE14      30.06S

SOUTHERN SASKATCHEWAN


CITY           SKY/WX    TMP DP  RH WIND       PRES   REMARKS
REGINA         PTSUNNY   52  34  50 SE21G26   29.87F
ESTEVAN        MOSUNNY   55  34  44 S18G26    29.94F
SWIFT CURRENT  SUNNY     54  41  62 S17G25    29.73S



USA.gov is the U.S. government's official web portal to all federal, state and local government web resources and services.